Hourly Data Report for April 21, 2003

SHERBROOKE A
QUEBEC

45°26'00.000" N
71°41'00.000" W
241.40 m
7028124
71610
YSC

Download Data

Hourly Data (April 2003)
Hourly Data Report for April 21, 2003
TIME
LST
Temp Definition
°C
Dew Point Definition
°C
Rel Hum Definition
%
Precip. Amount Definition
mm

Wind Dir Definition
10's deg

Wind Spd Definition
km/h
Visibility Definition
km
Stn Press Definition
kPa
Hmdx Definition


Wind Chill Definition


Weather Definition


00:00 12.7 0.6 43   15 9 15.0 98.66      
01:00 11.2 0.2 47   16 6 15.0 98.63      
02:00 12.2 -1.5 39   15 7 15.0 98.58      
03:00 11.6 -1.4 40   18 11 15.0 98.54      
04:00 11.4 -1.9 39   15 11 15.0 98.50      
05:00 11.6 -2.6 37   19 13 15.0 98.52      
06:00 11.2 -2.3 39   17 15 15.0 98.51      
07:00 13.4 -3.2 31   18 15 24.1 98.49     Mainly Clear
08:00 16.0 -3.1 27   16 17 24.1 98.44     Mainly Clear
09:00 16.7 -5.9 21   21 17 24.1 98.40     Mostly Cloudy
10:00 18.1 -7.8 16   22 22 24.1 98.31     Mostly Cloudy
11:00 20.0 -6.7 16   19 19 24.1 98.20     Mostly Cloudy
12:00 21.9 -6.7 14   18 13 24.1 98.04     Mostly Cloudy
13:00 22.6 -6.3 14   19 22 24.1 97.93     Mainly Clear
14:00 22.2 -5.7 15   19 13 24.1 97.88     Mostly Cloudy
15:00 21.6 -5.1 16   23 26 24.1 97.89     Mostly Cloudy
16:00 20.8 -3.0 20   25 19 24.1 97.89     Mostly Cloudy
17:00 16.6 -2.9 26   30 13 15.0 97.89      
18:00 14.2 -1.8 33   28 11 15.0 97.93      
19:00 11.4 5.4 67   15 7 15.0 97.95     Rain
20:00 9.0 6.0 81   11 9 15.0 97.90     Rain
21:00 8.5 6.0 84   8 7 15.0 97.86     Rain
22:00 8.4 6.3 87     0 15.0 97.86      
23:00 8.4 6.2 86   11 9 15.0 97.85      

Notes on Data Quality.

Legend

  • E = Estimated
  • M = Missing
  • NA = Not Available*
  • [empty] = Indicates an unobserved value
Date modified: